Regional Weather Roundup
Issued by NWS Kansas City/Pleasant Hill, MO

Home | Current Version | Previous Version | Graphics & Text | Print | Product List | Glossary Off
Versions: 1 2 3 4 5 6 7 8 9 10 11 12 13 14 15 16 17 18 19 20 21 22 23 24 25 26 27 28 29 30 31 32 33 34 35 36 37 38 39 40 41 42 43 44 45 46 47 48 49 50

000
ASUS43 KEAX 281010
RWREAX

WEATHER ROUNDUP FOR EASTERN KANSAS AND NORTHWEST MISSOURI
NATIONAL WEATHER SERVICE KANSAS CITY/PLEASANT HILL MO
500 AM CDT TUE MAR 28 2017

KSZ040-057-103>105-MOZ028-029-037-043-281100-
...KANSAS CITY METROPOLITAN AREA...

CITY           SKY/WX    TMP DP  RH WIND       PRES   REMARKS
K.C. INTL      CLOUDY    48  47  96 NE9       30.01F
K.C. DOWNTOWN  CLOUDY    50  46  86 NE9       30.00F
LEES SUMMIT    CLOUDY    48  47  96 NE7       30.01F
OLATHE - IXD   CLOUDY    48  45  89 NE6       30.01S
OLATHE - OJC   CLOUDY    47  47 100 NE8       30.00F FOG
LAWRENCE       CLOUDY    50  44  80 N6        30.02R

$$

MOZ001>008-011>017-020>025-030>033-038>040-044>046-053-054-281100-
...NORTHERN AND CENTRAL MISSOURI...

CITY           SKY/WX    TMP DP  RH WIND       PRES   REMARKS
ST. JOSEPH     CLOUDY    47  46  97 CALM      30.02S
MOSBY          CLOUDY    46  46 100 E5        30.03S
WARRENSBURG    CLOUDY    46  46 100 N7        30.01F FOG
WHITEMAN AFB   DRZL/FOG  49  49 100 N8        30.00S VSB 1
CLINTON        CLOUDY    48  48 100 N7        30.00F FOG
SEDALIA        CLOUDY    50  49  96 N8        30.02S FOG
WARSAW         NOT AVBL
CHILLICOTHE      N/A     48  46  93 N3        30.04S
KIRKSVILLE     CLOUDY    47  47 100 N6        30.03R FOG

$$

MOZ041-047>049-056>058-063>065-088>090-097-281100-
...EASTERN AND SOUTHERN MISSOURI...

CITY           SKY/WX    TMP DP  RH WIND       PRES   REMARKS
ST. LOUIS INTL DRIZZLE   54  50  86 N7        29.98R
SPIRIT OF STL  CLOUDY    53  50  89 N3        29.99R
COLUMBIA       CLOUDY    51  50  96 NE6       30.01R
JEFFERSON CITY CLOUDY    54  49  83 N3        30.01R
ROLLA          CLOUDY    51  51 100 NE8       29.98R
OSAGE BEACH    MIX PCPN N/A N/A N/A CALM      30.00S
SPRINGFIELD    CLOUDY    51  49  92 NE5       29.98R
BRANSON        CLOUDY    50  48  93 CALM      29.99R
JOPLIN         CLOUDY    50  50 100 NE3       30.00R
WEST PLAINS    CLOUDY    52  50  93 N3        29.98S

$$

IAZ060-094-KSZ022-034>040-054-083-096-NEZ052-066-093-281100-
...KANSAS...SOUTHEAST NEBRASKA AND IOWA...

CITY           SKY/WX    TMP DP  RH WIND       PRES   REMARKS
TOPEKA         CLOUDY    50  46  86 CALM      30.02R
MANHATTAN      CLOUDY    47  44  90 CALM      30.00S
EMPORIA        CLOUDY    49  47  93 E7        29.99F
CHANUTE        CLOUDY    51  46  83 E7        30.01R
WICHITA        CLOUDY    50  45  83 E10       29.98R
OMAHA          CLOUDY    38  33  82 N6        30.05S WCI  33
LINCOLN        PTCLDY    31  30  96 N5        30.05S WCI  26
FALLS CITY     CLOUDY    46  42  86 CALM      30.02S
LAMONI         CLOUDY    46  42  86 N3        30.02F
DES MOINES     CLOUDY    47  41  80 CALM      30.04S

$$




USA.gov is the U.S. government's official web portal to all federal, state and local government web resources and services.